Soldotna, AK

6:13 PM AKDT on September 30, 2016 (GMT -0800)
Soldotna

Weather History for PASX - November, 2012

Change the Weather History Date:

Wednesday, November 14, 2012

  Actual Average Record
Temperature  
Mean Temperature 27 °F -  
Max Temperature 28 °F 28 °F 44 °F (2013)
Min Temperature 26 °F 12 °F -15 °F (1973)
Degree Days  
Heating Degree Days 38    
Moisture  
Dew Point 25 °F    
Average Humidity 91    
Maximum Humidity 100    
Minimum Humidity 86    
Precipitation  
Precipitation 0.00 in - - ()
Sea Level Pressure  
Sea Level Pressure 29.38 in    
Wind  
Wind Speed 5 mph (NE)    
Max Wind Speed 8 mph    
Max Gust Speed -    
Visibility 6 miles    
Events      
Averages and records for this station are not official NWS values.
T = Trace of Precipitation, MM = Missing Value Source: NWS Daily Summary

Daily Weather History Graph

Daily Weather History Graph

Search for Another Location

Airport or City:

Trip Planner

Search our weather history database for the weather conditions in past years. The results will help you decide how hot, cold, wet, or windy it might be!

Date:

Astronomy

Nov. 14, 2012 Rise Set
Actual Time 9:04 AM AKST 4:32 PM AKST
Civil Twilight 8:14 AM AKST 5:22 PM AKST
Nautical Twilight 7:21 AM AKST 6:14 PM AKST
Astronomical Twilight 6:32 AM AKST 7:04 PM AKST
Moon 10:26 AM AKST (11/14) 5:08 PM AKST (11/14)
Length of Visible Light 9h 07m
Length of Day
7h 27m
New Moon, 1% of the Moon is Illuminated
Nov 14
New Moon
Nov 20
First Quarter
Nov 28
Full
Dec 6
Last Quarter
Dec 12
New

Hourly Weather History & Observations

Time (AKST) Temp. Windchill Dew Point Humidity Pressure Visibility Wind Dir Wind Speed Gust Speed Precip Events Conditions
12:16 AM 26.6 °F 19.1 °F 24.8 °F 93% 29.60 in 10.0 mi NNE 6.9 mph - N/A   Overcast
12:56 AM 26.6 °F 21.2 °F 23.0 °F 86% 29.59 in 10.0 mi NE 4.6 mph - N/A   Overcast
1:16 AM 26.6 °F - 24.8 °F 93% 29.58 in 2.5 mi Calm Calm - N/A   Overcast
1:36 AM 26.6 °F 20.0 °F 24.8 °F 93% 29.58 in 1.8 mi NNE 5.8 mph - N/A   Overcast
1:56 AM 26.6 °F 20.0 °F 24.8 °F 93% 29.56 in 5.0 mi NE 5.8 mph - N/A   Overcast
2:16 AM 26.6 °F 19.1 °F 24.8 °F 93% 29.55 in 8.0 mi NE 6.9 mph - N/A   Mostly Cloudy
2:36 AM 26.6 °F 19.1 °F 24.8 °F 93% 29.54 in 5.0 mi NNE 6.9 mph - N/A   Overcast
2:56 AM 26.6 °F 19.1 °F 24.8 °F 93% 29.53 in 7.0 mi NE 6.9 mph - N/A   Overcast
3:16 AM 26.6 °F 21.2 °F 24.8 °F 93% 29.52 in 4.0 mi NNE 4.6 mph - N/A   Overcast
3:36 AM 26.6 °F 20.0 °F 24.8 °F 93% 29.51 in 5.0 mi NNE 5.8 mph - N/A   Mostly Cloudy
3:56 AM 26.6 °F 20.0 °F 24.8 °F 93% 29.50 in 10.0 mi NNE 5.8 mph - N/A   Overcast
4:16 AM 26.6 °F 18.2 °F 24.8 °F 93% 29.49 in 9.0 mi ENE 8.1 mph - N/A   Overcast
4:36 AM 26.6 °F 20.0 °F 24.8 °F 93% 29.47 in 10.0 mi NE 5.8 mph - N/A   Mostly Cloudy
4:56 AM 26.6 °F 21.2 °F 24.8 °F 93% 29.46 in 10.0 mi NNE 4.6 mph - N/A   Overcast
5:16 AM 26.6 °F 20.0 °F 24.8 °F 93% 29.46 in 10.0 mi NNE 5.8 mph - N/A   Overcast
5:36 AM 26.6 °F 20.0 °F 24.8 °F 93% 29.45 in 10.0 mi NE 5.8 mph - N/A   Overcast
5:56 AM 28.4 °F 24.6 °F 24.8 °F 86% 29.44 in 10.0 mi NNE 3.5 mph - N/A   Mostly Cloudy
6:16 AM 28.4 °F 23.3 °F 24.8 °F 86% 29.44 in 10.0 mi NNE 4.6 mph - N/A   Mostly Cloudy
6:36 AM 28.4 °F 24.6 °F 24.8 °F 86% 29.44 in 9.0 mi NNE 3.5 mph - N/A   Mostly Cloudy
6:56 AM 28.4 °F 22.2 °F 24.8 °F 86% 29.44 in 10.0 mi NE 5.8 mph - N/A   Overcast
7:16 AM 28.4 °F 24.6 °F 24.8 °F 86% 29.43 in 9.0 mi ENE 3.5 mph - N/A   Overcast
7:36 AM 28.4 °F 24.6 °F 24.8 °F 86% 29.42 in 10.0 mi ENE 3.5 mph - N/A   Overcast
7:56 AM 28.4 °F 23.3 °F 24.8 °F 86% 29.41 in 10.0 mi ENE 4.6 mph - N/A   Overcast
8:16 AM 28.4 °F 23.3 °F 24.8 °F 86% 29.40 in 10.0 mi ENE 4.6 mph - N/A   Overcast
8:36 AM 28.4 °F 21.2 °F 26.6 °F 93% 29.40 in 8.0 mi NE 6.9 mph - N/A   Overcast
8:56 AM 28.4 °F 22.2 °F 24.8 °F 86% 29.40 in 5.0 mi ENE 5.8 mph - N/A   Overcast
9:16 AM 28.4 °F 22.2 °F 26.6 °F 93% 29.39 in 4.0 mi ENE 5.8 mph - N/A   Overcast
9:36 AM 28.4 °F 23.3 °F 26.6 °F 93% 29.38 in 5.0 mi East 4.6 mph - N/A   Overcast
9:56 AM 28.4 °F 23.3 °F 26.6 °F 93% 29.38 in 5.0 mi ENE 4.6 mph - N/A   Overcast
10:16 AM 28.4 °F - 26.6 °F 93% 29.38 in 2.0 mi Calm Calm - N/A   Overcast
10:36 AM 28.4 °F - 24.8 °F 86% 29.37 in 1.0 mi Calm Calm - N/A   Overcast
10:56 AM 28.4 °F - 26.6 °F 93% 29.37 in - Calm Calm - N/A   Overcast
11:16 AM 28.4 °F 24.6 °F 26.6 °F 93% 29.36 in - North 3.5 mph - N/A   Overcast
11:36 AM 28.4 °F 24.6 °F 26.6 °F 93% 29.36 in - NNE 3.5 mph - N/A   Overcast
11:56 AM 28.4 °F 23.3 °F 26.6 °F 93% 29.36 in 1.5 mi North 4.6 mph - N/A   Overcast
12:16 PM 28.4 °F 24.6 °F 26.6 °F 93% 29.35 in 1.2 mi North 3.5 mph - N/A   Overcast
12:36 PM 28.4 °F 22.2 °F 26.6 °F 93% 29.35 in 1.2 mi NNE 5.8 mph - N/A   Overcast
12:56 PM 28.4 °F 23.3 °F 26.6 °F 93% 29.33 in 1.2 mi NNE 4.6 mph - N/A   Overcast
1:16 PM 28.4 °F 23.3 °F 26.6 °F 93% 29.33 in 1.8 mi NNE 4.6 mph - N/A   Overcast
1:36 PM 28.4 °F 24.6 °F 26.6 °F 93% 29.33 in 2.5 mi NNE 3.5 mph - N/A   Overcast
1:56 PM 28.4 °F 24.6 °F 24.8 °F 86% 29.33 in 2.5 mi NNE 3.5 mph - N/A   Overcast
2:16 PM 28.4 °F 23.3 °F 24.8 °F 86% 29.32 in 1.5 mi NNE 4.6 mph - N/A   Overcast
2:36 PM 28.4 °F 21.2 °F 26.6 °F 93% 29.32 in - NE 6.9 mph - N/A   Unknown
2:56 PM 28.4 °F 24.6 °F 24.8 °F 86% 29.30 in - NE 3.5 mph - N/A   Unknown
3:16 PM 28.4 °F 22.2 °F 26.6 °F 93% 29.30 in - ENE 5.8 mph - N/A   Unknown
3:36 PM 28.4 °F 23.3 °F 24.8 °F 86% 29.30 in - NE 4.6 mph - N/A   Overcast
3:56 PM 28.4 °F 22.2 °F 24.8 °F 86% 29.30 in 4.0 mi NE 5.8 mph - N/A   Mostly Cloudy
4:16 PM 28.4 °F 23.3 °F 24.8 °F 86% 29.29 in 5.0 mi NE 4.6 mph - N/A   Overcast
4:36 PM 28.4 °F 24.6 °F 24.8 °F 86% 29.29 in 3.0 mi NNE 3.5 mph - N/A   Overcast
4:56 PM 28.4 °F - 24.8 °F 86% 29.29 in 6.0 mi Calm Calm - N/A   Overcast
5:16 PM 28.4 °F - 24.8 °F 86% 29.30 in 10.0 mi Calm Calm - N/A   Overcast
5:36 PM 26.6 °F 22.6 °F 24.8 °F 93% 29.29 in 10.0 mi NE 3.5 mph - N/A   Overcast
5:56 PM 26.6 °F - 24.8 °F 93% 29.30 in 5.0 mi Calm Calm - N/A   Overcast
6:16 PM 26.6 °F - 24.8 °F 93% 29.30 in 4.0 mi Calm Calm - N/A   Overcast
6:36 PM 26.6 °F 22.6 °F 24.8 °F 93% 29.30 in 6.0 mi East 3.5 mph - N/A   Overcast
6:56 PM 26.6 °F - 24.8 °F 93% 29.30 in 10.0 mi Calm Calm - N/A   Overcast
7:16 PM 26.6 °F - 24.8 °F 93% 29.31 in 10.0 mi Calm Calm - N/A   Overcast
7:36 PM 26.6 °F 21.2 °F 24.8 °F 93% 29.31 in 10.0 mi ENE 4.6 mph - N/A   Overcast
7:56 PM 26.6 °F 22.6 °F 24.8 °F 93% 29.31 in 3.0 mi ENE 3.5 mph - N/A   Overcast
8:16 PM 26.6 °F 22.6 °F 24.8 °F 93% 29.32 in 2.0 mi ENE 3.5 mph - N/A   Overcast
8:36 PM 26.6 °F - 24.8 °F 93% 29.32 in 2.0 mi Calm Calm - N/A   Overcast
8:56 PM 26.6 °F 21.2 °F 24.8 °F 93% 29.32 in 1.8 mi ENE 4.6 mph - N/A   Overcast
9:16 PM 26.6 °F 21.2 °F 26.6 °F 100% 29.32 in 3.0 mi East 4.6 mph - N/A   Overcast
9:36 PM 26.6 °F 20.0 °F 24.8 °F 93% 29.32 in 5.0 mi ENE 5.8 mph - N/A   Overcast
9:56 PM 26.6 °F 21.2 °F 24.8 °F 93% 29.32 in 5.0 mi ENE 4.6 mph - N/A   Overcast
10:16 PM 26.6 °F 22.6 °F 24.8 °F 93% 29.32 in 7.0 mi ENE 3.5 mph - N/A   Overcast
10:36 PM 26.6 °F 22.6 °F 24.8 °F 93% 29.32 in 6.0 mi ENE 3.5 mph - N/A   Overcast
10:56 PM 26.6 °F 22.6 °F 24.8 °F 93% 29.33 in 10.0 mi ENE 3.5 mph - N/A   Overcast
11:16 PM 26.6 °F 22.6 °F 24.8 °F 93% 29.33 in 10.0 mi East 3.5 mph - N/A   Overcast
11:36 PM 26.6 °F - 24.8 °F 93% 29.34 in 10.0 mi Calm Calm - N/A   Overcast
11:56 PM 26.6 °F 20.0 °F 24.8 °F 93% 29.34 in 10.0 mi East 5.8 mph - N/A   Overcast